This demonstration page uses our WeatherBlox Daily Observations layout. Learn more.

Left ArrowRight Arrow

34.74481, -87.66753

Hourly Observations for June 14, 2017

Temp ( °F °C ) Dew Point ( °F °C ) Humidity (%) Winds ( mph kmh ) Pressure ( in mb ) Visibility ( mi km ) Precip ( " mm )
12:53 am 00:53 Clear 72 22.2 67 19.4 84 84 Calm 30.01 1016 10 16 0.00 0.00
1:53 am 01:53 Clear 71 21.7 67 19.4 87 87 E 3 6 30.01 1016 10 16 0.00 0.00
2:53 am 02:53 Clear 71 21.7 67 19.4 87 87 Calm 30.00 1016 10 16 0.00 0.00
3:53 am 03:53 Clear 69 20.6 66 18.9 90 90 Calm 30.01 1016 10 16 0.00 0.00
4:53 am 04:53 Clear 69 20.6 66 18.9 90 90 SSE 3 6 30.01 1016 10 16 0.00 0.00
5:53 am 05:53 Sunny 69 20.6 66 18.9 90 90 Calm 30.03 1017 10 16 0.00 0.00
6:53 am 06:53 Sunny 73 22.8 69 20.6 87 87 Calm 30.04 1017 10 16 0.00 0.00
7:53 am 07:53 Sunny 77 25 70 21.1 79 79 VRB 3 6 30.06 1018 10 16 0.00 0.00
8:53 am 08:53 Sunny 82 27.8 71 21.7 69 69 Calm 30.07 1018 10 16 0.00 0.00
9:53 am 09:53 Mostly Sunny 84 28.9 69 20.6 61 61 Calm 30.06 1018 10 16 0.00 0.00
10:53 am 10:53 Mostly Cloudy 86 30 68 20 55 55 W 6 9 30.06 1018 10 16 0.00 0.00
11:53 am 11:53 Partly Cloudy 88 31.1 66 18.9 48 48 Calm 30.05 1018 10 16 0.00 0.00
12:53 pm 12:53 Cloudy 88 31.1 68 20 52 52 VRB 3 6 30.04 1017 10 16 0.00 0.00
1:53 pm 13:53 Cloudy 87 30.6 69 20.6 55 55 E 6 9 30.01 1016 10 16 0.00 0.00
2:53 pm 14:53 Mostly Cloudy 86 30 70 21.1 59 59 Calm 29.99 1016 10 16 0.00 0.00
3:53 pm 15:53 Mostly Sunny 90 32.2 68 20 48 48 NNE 5 7 29.97 1015 10 16 0.00 0.00
4:53 pm 16:53 Sunny 90 32.2 65 18.3 44 44 VRB 3 6 29.96 1015 10 16 0.00 0.00
5:53 pm 17:53 Mostly Cloudy 88 31.1 68 20 52 52 WNW 5 7 29.96 1014 10 16 0.00 0.00
6:53 pm 18:53 Partly Cloudy 84 28.9 72 22.2 67 67 Calm 29.96 1014 10 16 0.00 0.03
7:53 pm 19:53 Sunny 85 29.4 71 21.7 63 63 SW 5 7 29.96 1015 10 16 0.00 0.03
8:53 pm 20:53 Mostly Clear 82 27.8 71 21.7 69 69 WSW 7 11 29.97 1015 10 16 0.00 0.00
9:53 pm 21:53 Clear 78 25.6 71 21.7 79 79 Calm 29.99 1016 10 16 0.00 0.00
10:53 pm 22:53 Clear 77 25 71 21.7 82 82 Calm 30.00 1016 10 16 0.00 0.00
11:53 pm 23:53 Clear 74 23.3 70 21.1 88 88 Calm 29.99 1016 10 16 0.00 0.00

Powered by AerisWeather